This is the latest recevied weather packets stored in our database for station/object YC0TBU-3. If no packets are shown the sender has not sent any weather packets the latest 10 day(s).
| Time | Temp. | Humidity | Pressure | Rain* | Wind** | Luminosity | Snow |
|---|---|---|---|---|---|---|---|
| 1777586663 | 23.33° C | 55% | 1012.1 hPa | - | - | - | - |
| 1777585958 | 23.89° C | 55% | 1012.5 hPa | - | - | - | - |
| 1777585253 | 23.33° C | 56% | 1013 hPa | - | - | - | - |
| 1777584548 | 23.33° C | 56% | 1011 hPa | - | - | - | - |
| 1777583849 | 23.89° C | 56% | 1011.6 hPa | - | - | - | - |
| 1777583122 | 23.33° C | 56% | 1010.4 hPa | - | - | - | - |
| 1777582417 | 23.33° C | 56% | 1011.4 hPa | - | - | - | - |
| 1777581712 | 23.33° C | 56% | 1012.8 hPa | - | - | - | - |
| 1777581007 | 23.89° C | 55% | 1012.9 hPa | - | - | - | - |
| 1777580302 | 23.89° C | 55% | 1014.3 hPa | - | - | - | - |
| 1777579597 | 23.89° C | 55% | 1012.6 hPa | - | - | - | - |
| 1777578892 | 23.89° C | 55% | 1011.8 hPa | - | - | - | - |
| 1777578187 | 23.89° C | 55% | 1014.6 hPa | - | - | - | - |
| 1777577482 | 23.89° C | 54% | 1014.4 hPa | - | - | - | - |
| 1777576777 | 24.44° C | 54% | 1013.9 hPa | - | - | - | - |
| 1777576072 | 24.44° C | 53% | 1015 hPa | - | - | - | - |
| 1777575367 | 24.44° C | 54% | 1014.7 hPa | - | - | - | - |
| 1777574662 | 24.44° C | 55% | 1013.4 hPa | - | - | - | - |
| 1777573957 | 24.44° C | 55% | 1016.1 hPa | - | - | - | - |
| 1777573257 | 25° C | 54% | 1015 hPa | - | - | - | - |
| 1777572531 | 24.44° C | 56% | 1014.9 hPa | - | - | - | - |
| 1777571826 | 24.44° C | 55% | 1015.4 hPa | - | - | - | - |
| 1777571121 | 25° C | 55% | 1015.3 hPa | - | - | - | - |
| 1777570416 | 25° C | 55% | 1015 hPa | - | - | - | - |
| 1777569711 | 25° C | 55% | 1014.9 hPa | - | - | - | - |
* Rain since midnight (hover to see other rain measurements)
** Current wind speed in m/s (hover to see current wind gust speed)